| time (UTC) | temp F | wind direction | speed MPH | gust MPH | rain 1hr in | rain 24hr in | rain mn in | humidity % | barometer mb |
| 20260507173720 | 54 | 246 | 3.0 | 3.0 | 0.00 | 0.00 | 0.00 | 100 | 1002.7 |
| 20260507172314 | 55 | 229 | 4.0 | 5.0 | 0.00 | 0.00 | 0.00 | 100 | 1002.7 |
| 20260507170912 | 55 | 188 | 5.0 | 6.0 | 0.00 | 0.00 | 0.00 | 100 | 1002.7 |
| 20260507165511 | 54 | 172 | 5.0 | 5.0 | 0.00 | 0.00 | 0.00 | 100 | 1002.6 |
| 20260507164109 | 54 | 240 | 5.0 | 4.0 | 0.00 | 0.00 | 0.00 | 100 | 1002.7 |
| 20260507162703 | 54 | 211 | 5.0 | 4.0 | 0.00 | 0.00 | 0.00 | 100 | 1002.9 |
| 20260507161305 | 54 | 242 | 5.0 | 6.0 | 0.00 | 0.00 | 0.00 | 100 | 1003.1 |
| 20260507155856 | 55 | 232 | 9.0 | 4.0 | 0.00 | 0.00 | 0.00 | 100 | 1003.3 |
| 20260507154451 | 54 | 229 | 5.0 | 5.0 | 0.00 | 0.00 | 0.00 | 100 | 1003.3 |
| 20260507151645 | 53 | 264 | 6.0 | 5.0 | 0.00 | 0.00 | 0.00 | 100 | 1003.2 |
| 20260507150241 | 53 | 263 | 2.0 | 3.0 | 0.00 | 0.00 | 0.00 | 100 | 1003.4 |
| 20260507143436 | 53 | 212 | 4.0 | 3.0 | 0.00 | 0.00 | 0.00 | 100 | 1003.6 |
| 20260507142032 | 53 | 212 | 3.0 | 1.0 | 0.00 | 0.00 | 0.00 | 100 | 1003.7 |
| 20260507140635 | 52 | 207 | 3.0 | 4.0 | 0.00 | 0.00 | 0.00 | 100 | 1003.7 |
| 20260507135226 | 52 | 260 | 5.0 | 3.0 | 0.00 | 0.00 | 0.00 | 100 | 1003.8 |
| 20260507133823 | 52 | 269 | 1.0 | 1.0 | 0.00 | 0.00 | 0.00 | 100 | 1003.7 |
| 20260507132424 | 52 | 330 | 2.0 | 2.0 | 0.00 | 0.00 | 0.00 | 100 | 1003.8 |
| 20260507131019 | 52 | 316 | 0.0 | 0.0 | 0.00 | 0.00 | 0.00 | 100 | 1004.0 |
| 20260507125613 | 52 | 263 | 0.0 | 0.0 | 0.00 | 0.00 | 0.00 | 100 | 1003.9 |
| 20260507124210 | 52 | 322 | 3.0 | 2.0 | 0.00 | 0.00 | 0.00 | 100 | 1003.8 |
| 20260507122806 | 52 | 284 | 3.0 | 3.0 | 0.00 | 0.00 | 0.00 | 100 | 1003.7 |
| 20260507121403 | 52 | 239 | 0.0 | 0.0 | 0.00 | 0.00 | 0.00 | 100 | 1003.7 |
| 20260507115959 | 53 | 243 | 1.0 | 1.0 | 0.00 | 0.00 | 0.00 | 100 | 1003.9 |
| 20260507114556 | 53 | 135 | 0.0 | 0.0 | 0.00 | 0.00 | 0.00 | 100 | 1003.8 |
| 20260507113152 | 54 | 238 | 1.0 | 0.0 | 0.00 | 0.00 | 0.00 | 100 | 1003.9 |
| 20260507111752 | 55 | 198 | 3.0 | 2.0 | 0.00 | 0.00 | 0.00 | 100 | 1003.9 |
| 20260507110346 | 55 | 188 | 2.0 | 2.0 | 0.00 | 0.00 | 0.00 | 100 | 1003.9 |
| 20260507104947 | 55 | 293 | 4.0 | 3.0 | 0.00 | 0.00 | 0.00 | 100 | 1004.0 |
| 20260507103541 | 55 | 307 | 3.0 | 3.0 | 0.00 | 0.00 | 0.00 | 100 | 1004.0 |
| 20260507102141 | 55 | 315 | 3.0 | 3.0 | 0.00 | 0.00 | 0.00 | 100 | 1004.1 |
| 20260507100735 | 55 | 290 | 3.0 | 4.0 | 0.00 | 0.00 | 0.00 | 100 | 1004.1 |
| 20260507093929 | 55 | 278 | 3.0 | 3.0 | 0.00 | 0.00 | 0.00 | 100 | 1004.1 |
| 20260507092525 | 55 | 338 | 3.0 | 5.0 | 0.00 | 0.00 | 0.00 | 100 | 1004.0 |
| 20260507091122 | 55 | 308 | 5.0 | 6.0 | 0.00 | 0.00 | 0.00 | 100 | 1004.0 |
| 20260507085715 | 56 | 336 | 6.0 | 8.0 | 0.00 | 0.00 | 0.00 | 100 | 1003.9 |
| 20260507084311 | 56 | 309 | 2.0 | 3.0 | 0.00 | 0.00 | 0.00 | 100 | 1004.1 |
| 20260507082908 | 56 | 287 | 4.0 | 3.0 | 0.00 | 0.00 | 0.00 | 100 | 1004.0 |
| 20260507080103 | 56 | 271 | 5.0 | 6.0 | 0.00 | 0.00 | 0.00 | 100 | 1004.3 |
| 20260507074658 | 56 | 271 | 5.0 | 4.0 | 0.00 | 0.00 | 0.00 | 100 | 1004.6 |
| 20260507073255 | 56 | 294 | 2.0 | 3.0 | 0.00 | 0.00 | 0.00 | 100 | 1004.6 |
| 20260507071851 | 57 | 329 | 1.0 | 0.0 | 0.00 | 0.00 | 0.00 | 100 | 1004.7 |
| 20260507070448 | 57 | 352 | 0.0 | 0.0 | 0.00 | 0.00 | 0.00 | 100 | 1004.8 |
| 20260507065043 | 57 | 352 | 0.0 | 0.0 | 0.00 | 0.00 | 0.00 | 100 | 1004.7 |
| 20260507063641 | 58 | 352 | 0.0 | 0.0 | 0.00 | 0.00 | 0.00 | 100 | 1004.6 |
| 20260507062236 | 58 | 352 | 0.0 | 0.0 | 0.00 | 0.00 | 0.00 | 100 | 1004.7 |
| 20260507060831 | 58 | 14 | 0.0 | 0.0 | 0.00 | 0.00 | 0.00 | 100 | 1004.7 |
| 20260507055429 | 59 | 284 | 2.0 | 2.0 | 0.00 | 0.00 | 0.00 | 100 | 1004.8 |
| 20260507054026 | 60 | 248 | 0.0 | 0.0 | 0.00 | 0.00 | 0.00 | 99 | 1005.0 |
| 20260507052622 | 61 | 169 | 0.0 | 0.0 | 0.00 | 0.00 | 0.00 | 99 | 1005.2 |
| 20260507051217 | 62 | 110 | 2.0 | 2.0 | 0.00 | 0.00 | 0.00 | 97 | 1005.4 |
| 20260507045813 | 63 | 11 | 1.0 | 1.0 | 0.00 | 0.00 | 0.00 | 97 | 1005.5 |
| 20260507044411 | 63 | 248 | 1.0 | 0.0 | 0.00 | 0.00 | 0.00 | 96 | 1005.8 |
| 20260507043007 | 64 | 17 | 2.0 | 2.0 | 0.00 | 0.00 | 0.00 | 95 | 1005.9 |
| 20260507041603 | 65 | 325 | 4.0 | 3.0 | 0.00 | 0.00 | 0.00 | 97 | 1005.7 |
| 20260507040200 | 64 | 305 | 3.0 | 6.0 | 0.00 | 0.00 | 0.00 | 97 | 1005.2 |
| 20260507034756 | 64 | 276 | 2.0 | 0.0 | 0.00 | 0.00 | 0.00 | 97 | 1005.2 |
| 20260507033352 | 63 | 354 | 1.0 | 4.0 | 0.00 | 0.00 | 0.00 | 96 | 1004.9 |
| 20260507031948 | 63 | 104 | 1.0 | 0.0 | 0.00 | 0.00 | 0.00 | 96 | 1004.9 |
| 20260507030544 | 62 | 305 | 2.0 | 1.0 | 0.00 | 0.00 | 0.00 | 95 | 1005.1 |
| 20260507025142 | 63 | 357 | 2.0 | 2.0 | 0.00 | 0.00 | 0.00 | 93 | 1005.6 |
| 20260507023738 | 64 | 352 | 3.0 | 2.0 | 0.00 | 0.00 | 0.00 | 91 | 1006.0 |
| 20260507022335 | 64 | 24 | 3.0 | 4.0 | 0.00 | 0.00 | 0.00 | 85 | 1006.3 |
| 20260507020933 | 64 | 59 | 0.0 | 0.0 | 0.00 | 0.00 | 0.00 | 85 | 1006.3 |
| 20260507015530 | 64 | 58 | 0.0 | 0.0 | 0.00 | 0.00 | 0.00 | 81 | 1006.1 |
| 20260507014126 | 64 | 212 | 1.0 | 1.0 | 0.00 | 0.00 | 0.00 | 82 | 1006.0 |
| 20260507012723 | 63 | 167 | 3.0 | 3.0 | 0.00 | 0.00 | 0.00 | 85 | 1006.0 |
| 20260507011319 | 63 | 203 | 2.0 | 2.0 | 0.00 | 0.00 | 0.00 | 85 | 1006.2 |
| 20260507005917 | 62 | 141 | 2.0 | 0.0 | 0.00 | 0.00 | 0.00 | 85 | 1006.4 |
| 20260507004513 | 61 | 224 | 3.0 | 4.0 | 0.00 | 0.00 | 0.00 | 85 | 1006.1 |
| 20260507003109 | 61 | 270 | 5.0 | 5.0 | 0.00 | 0.00 | 0.00 | 83 | 1006.7 |
| 20260507000303 | 61 | 128 | 0.0 | 0.0 | 0.00 | 0.00 | 0.00 | 79 | 1006.8 |
| 20260506234900 | 62 | 181 | 2.0 | 2.0 | 0.00 | 0.00 | 0.00 | 76 | 1007.2 |
| 20260506232057 | 62 | 152 | 1.0 | 0.0 | 0.00 | 0.00 | 0.00 | 73 | 1007.5 |
| 20260506230650 | 61 | 134 | 4.0 | 4.0 | 0.00 | 0.00 | 0.00 | 81 | 1007.5 |
| 20260506225251 | 60 | 149 | 4.0 | 3.0 | 0.00 | 0.00 | 0.00 | 80 | 1007.7 |
| 20260506223848 | 60 | 75 | 1.0 | 2.0 | 0.00 | 0.00 | 0.00 | 83 | 1008.1 |
| 20260506222445 | 60 | 86 | 0.0 | 1.0 | 0.00 | 0.00 | 0.00 | 81 | 1008.2 |
| 20260506221039 | 59 | 131 | 2.0 | 2.0 | 0.00 | 0.00 | 0.00 | 84 | 1008.5 |
| 20260506215636 | 56 | 249 | 0.0 | 0.0 | 0.00 | 0.00 | 0.00 | 94 | 1008.5 |
| 20260506212830 | 53 | 270 | 0.0 | 1.0 | 0.00 | 0.00 | 0.00 | 99 | 1009.0 |
| 20260506211428 | 52 | 93 | 0.0 | 0.0 | 0.00 | 0.00 | 0.00 | 100 | 1009.3 |
| 20260506210024 | 52 | 93 | 0.0 | 0.0 | 0.00 | 0.00 | 0.00 | 100 | 1009.7 |
| 20260506204620 | 52 | 218 | 0.0 | 1.0 | 0.00 | 0.00 | 0.00 | 100 | 1009.9 |
| 20260506203220 | 52 | 132 | 1.0 | 0.0 | 0.00 | 0.00 | 0.00 | 100 | 1009.9 |
| 20260506201815 | 51 | 236 | 1.0 | 0.0 | 0.00 | 0.00 | 0.00 | 99 | 1010.0 |
| 20260506200411 | 51 | 224 | 0.0 | 0.0 | 0.00 | 0.00 | 0.00 | 99 | 1010.1 |
| 20260506195008 | 51 | 246 | 1.0 | 0.0 | 0.00 | 0.00 | 0.00 | 99 | 1010.3 |
| 20260506193607 | 51 | 271 | 1.0 | 1.0 | 0.00 | 0.00 | 0.00 | 99 | 1010.3 |
| 20260506192201 | 51 | 267 | 1.0 | 1.0 | 0.00 | 0.00 | 0.00 | 99 | 1010.5 |
| 20260506190756 | 51 | 295 | 2.0 | 0.0 | 0.00 | 0.00 | 0.00 | 98 | 1010.8 |
| 20260506185352 | 51 | 155 | 1.0 | 2.0 | 0.00 | 0.00 | 0.00 | 96 | 1010.9 |
| 20260506183949 | 51 | 169 | 2.0 | 2.0 | 0.00 | 0.00 | 0.00 | 97 | 1011.1 |
| 20260506182545 | 51 | 245 | 2.0 | 1.0 | 0.00 | 0.00 | 0.00 | 98 | 1011.2 |
| 20260506181140 | 51 | 152 | 0.0 | 0.0 | 0.00 | 0.00 | 0.00 | 99 | 1011.3 |
| 20260506175736 | 50 | 267 | 2.0 | 3.0 | 0.00 | 0.00 | 0.00 | 100 | 1011.7 |